User: anonymous   Login
Location: Unspecified
(0.0000°N, 0.0000°E)
Time: 01:56:59
(UTC+00:00)
Language:

A-11 Canister half - Orbit

View from above orbital plane
View from above orbital plane
View from above satellite
View from above satellite

Ground track
Ground track

The orbit data is extracted from the following two-line orbital elements,

1 00051U 60009C   17328.53473075 -.00000134  00000-0 -48863-3 0  9998
2 00051  47.2155   2.9035 0107911 259.7745  99.0860 12.18268655549980
Epoch (UTC): 24 November 2017 12:50:00
Eccentricity: 0.0107911
inclination: 47.2155°
perigee height: 1514 km
apogee height: 1686 km
right ascension of ascending node: 2.9035°
argument of perigee: 259.7745°
revolutions per day: 12.18268655
mean anomaly at epoch: 99.0860°
orbit number at epoch: 54998

The dashed part of the orbit path shows where the satellite is in the earth's shadow,  

DLR